GW1647 Weather Reports


Display with metric or nautical units.
time (UTC)temp
F
wind
direction
speed
MPH
gust
MPH
rain 1hr
in
rain 24hr
in
rain mn
in
humidity
%
barometer
mb
20260903064558 84 181 4.0 13.0 0.00 0.00 0.00 56 1010.8
20260903063105 84 169 5.0 16.0 0.00 0.00 0.00 56 1010.8
20260903061612 84 181 5.0 13.0 0.00 0.00 0.00 56 1010.7
20260903060106 84 198 4.0 13.0 0.00 0.00 0.00 56 1010.7
20260903054602 84 179 4.0 13.0 0.00 0.00 0.00 56 1010.8
20260903053114 84 163 4.0 17.0 0.00 0.00 0.00 56 1010.8
20260903051559 85 162 5.0 15.0 0.00 0.00 0.00 55 1010.9
20260903050107 85 173 5.0 15.0 0.00 0.00 0.00 55 1010.8
20260903044609 85 190 4.0 15.0 0.00 0.00 0.00 55 1010.9
20260903043104 85 0 4.0 15.0 0.00 0.00 0.00 55 1011.0
20260903041600 85 182 5.0 16.0 0.00 0.00 0.00 54 1010.8
20260903040110 86 188 4.0 14.0 0.00 0.00 0.00 54 1010.9
20260903034604 86 171 5.0 16.0 0.00 0.00 0.00 53 1010.8
20260903033101 86 180 5.0 12.0 0.00 0.00 0.00 53 1010.8
20260903031622 87 169 4.0 16.0 0.00 0.00 0.00 52 1010.8
20260903030117 87 180 4.0 13.0 0.00 0.00 0.00 51 1010.8
20260903024602 88 161 4.0 17.0 0.00 0.00 0.00 51 1010.7
20260903023103 88 170 4.0 13.0 0.00 0.00 0.00 51 1010.7
20260903021608 88 186 3.0 14.0 0.00 0.00 0.00 52 1010.5
20260903014612 89 157 1.0 9.0 0.00 0.00 0.00 52 1010.1
20260903013116 90 166 2.0 8.0 0.00 0.00 0.00 50 1010.1
20260903011618 91 171 2.0 9.0 0.00 0.00 0.00 49 1010.0
20260903010119 91 182 2.0 10.0 0.00 0.00 0.00 49 1009.9
20260903004604 92 180 4.0 15.0 0.00 0.00 0.00 49 1009.9
20260903003106 93 171 1.0 10.0 0.00 0.00 0.00 48 1010.1
20260903001606 94 188 2.0 7.0 0.00 0.00 0.00 47 1010.0
20260903000104 96 164 1.0 7.0 0.00 0.00 0.00 44 1010.1
20260902234602 97 192 3.0 11.0 0.00 0.00 0.00 42 1010.2
20260902233105 97 190 4.0 14.0 0.00 0.00 0.00 42 1010.2
20260902231613 97 205 3.0 16.0 0.00 0.00 0.00 42 1010.3
20260902230105 97 170 6.0 15.0 0.00 0.00 0.00 42 1010.4
20260902224607 97 210 7.0 18.0 0.00 0.00 0.00 42 1010.3
20260902223059 97 193 7.0 17.0 0.00 0.00 0.00 43 1010.4
20260902221628 97 203 3.0 22.0 0.00 0.00 0.00 43 1010.4
20260902220106 97 209 6.0 19.0 0.00 0.00 0.00 43 1010.4
20260902214603 97 192 7.0 17.0 0.00 0.00 0.00 43 1010.6
20260902213109 97 203 7.0 15.0 0.00 0.00 0.00 44 1010.6
20260902211605 95 184 5.0 18.0 0.00 0.00 0.00 45 1010.7
20260902210103 95 186 9.0 20.0 0.00 0.00 0.00 44 1010.8
20260902204604 95 169 6.0 20.0 0.00 0.00 0.00 45 1010.9
20260902203058 95 215 8.0 19.0 0.00 0.00 0.00 43 1011.0
20260902201610 95 197 11.0 20.0 0.00 0.00 0.00 42 1011.2
20260902200105 95 190 6.0 16.0 0.00 0.00 0.00 45 1011.1
20260902194602 93 200 8.0 19.0 0.00 0.00 0.00 46 1011.2
20260902193106 93 200 11.0 22.0 0.00 0.00 0.00 45 1011.6
20260902191634 93 176 8.0 18.0 0.00 0.00 0.00 45 1011.6
20260902190107 93 190 6.0 15.0 0.00 0.00 0.00 47 1011.5
20260902184601 92 194 4.0 12.0 0.00 0.00 0.00 50 1011.8
20260902183122 94 203 4.0 15.0 0.00 0.00 0.00 47 1011.9
20260902181610 94 167 7.0 18.0 0.00 0.00 0.00 43 1012.0
20260902180108 94 200 6.0 16.0 0.00 0.00 0.00 43 1012.1
20260902174609 92 198 2.0 19.0 0.00 0.00 0.00 46 1012.3
20260902173113 91 190 5.0 14.0 0.00 0.00 0.00 47 1012.3
20260902171618 90 194 3.0 15.0 0.00 0.00 0.00 48 1012.6
20260902170106 89 207 3.0 13.0 0.00 0.00 0.00 50 1012.5
20260902164610 88 0 0.0 7.0 0.00 0.00 0.00 51 1012.5
20260902163103 88 188 2.0 11.0 0.00 0.00 0.00 50 1012.6
20260902161608 88 187 4.0 11.0 0.00 0.00 0.00 48 1012.7
20260902160116 88 205 4.0 14.0 0.00 0.00 0.00 48 1012.7
20260902154603 87 0 1.0 13.0 0.00 0.00 0.00 49 1012.7
20260902153101 86 198 5.0 12.0 0.00 0.00 0.00 51 1012.7
20260902151608 84 201 4.0 11.0 0.00 0.00 0.00 53 1012.7
20260902150103 83 223 1.0 3.0 0.00 0.00 0.00 58 1012.5
20260902144600 82 205 1.0 4.0 0.00 0.00 0.00 60 1012.4
20260902143103 81 190 2.0 7.0 0.00 0.00 0.00 63 1012.6
20260902141601 81 0 1.0 10.0 0.00 0.00 0.00 64 1012.7
20260902140106 81 0 1.0 8.0 0.00 0.00 0.00 63 1012.6
20260902134602 79 188 1.0 8.0 0.00 0.00 0.00 70 1012.5
20260902133108 77 148 2.0 5.0 0.00 0.00 0.00 73 1012.8
20260902131605 76 0 1.0 10.0 0.00 0.00 0.00 77 1012.9
20260902130105 75 113 2.0 5.0 0.00 0.00 0.00 79 1013.1
20260902124558 74 0 0.0 0.0 0.00 0.00 0.00 82 1013.2
20260902123106 73 0 0.0 1.0 0.00 0.00 0.00 85 1013.2
20260902121602 72 17 0.0 2.0 0.00 0.00 0.00 85 1013.3
20260902114558 72 0 0.0 2.0 0.00 0.00 0.00 86 1013.1
20260902113107 72 80 1.0 7.0 0.00 0.00 0.00 86 1012.8
20260902111609 72 127 1.0 5.0 0.00 0.00 0.00 86 1012.7
20260902104611 73 6 0.0 4.0 0.00 0.00 0.00 83 1013.1
20260902103106 73 141 1.0 3.0 0.00 0.00 0.00 82 1012.8
20260902101559 74 0 0.0 2.0 0.00 0.00 0.00 81 1012.9
20260902100100 74 115 1.0 6.0 0.00 0.00 0.00 81 1013.1
20260902094604 74 0 0.0 2.0 0.00 0.00 0.00 79 1013.3
20260902093106 74 0 0.0 3.0 0.00 0.00 0.00 78 1013.4
20260902091612 75 20 0.0 2.0 0.00 0.00 0.00 78 1013.2
20260902090120 75 2 0.0 3.0 0.00 0.00 0.00 76 1013.3
20260902084603 77 344 1.0 8.0 0.00 0.00 0.00 73 1013.3
20260902083108 78 0 0.0 3.0 0.00 0.00 0.00 68 1013.5
20260902081627 77 357 0.0 2.0 0.00 0.00 0.00 68 1013.5
20260902080111 77 353 1.0 5.0 0.00 0.00 0.00 68 1013.6
20260902074613 78 0 1.0 17.0 0.00 0.00 0.00 65 1013.3
20260902073112 80 198 1.0 3.0 0.00 0.00 0.00 59 1012.4
20260902071613 80 0 0.0 9.0 0.00 0.00 0.00 59 1012.3
20260902070105 80 0 0.0 9.0 0.00 0.00 0.00 59 1012.2